Location: Falken-Gesäß
(49.5603°N, 8.9309°E)
Time: 11:07:46
(UTC+00:00)

Daily predictions for brighter satellites

Satellite Brightness Start Highest point End
(mag) Time Altitude Azimuth Time Altitude Azimuth Time Altitude Azimuth
Cosmos 1455 Rocket 3.0 19:31:53 10° S 19:36:15 71° E 19:40:38 10° NNE
Cosmos 1892 Rocket 3.5 19:31:56 10° N 19:36:17 86° E 19:40:34 10° S
USA 306 2.2 19:33:04 10° WSW 19:36:32 67° NNW 19:38:58 10° ENE
CZ-4B R/B 4.4 19:35:55 10° ESE 19:38:09 17° ENE 19:40:25 10° NNE
Okean O Rocket 2.1 19:34:58 10° SE 19:39:01 44° ENE 19:43:08 10° N
Cosmos 2100 Rocket 4.4 19:34:29 10° SSW 19:40:43 73° W 19:47:04 10° N
Meteor 1-27 4.2 19:36:32 10° S 19:42:08 73° E 19:47:42 10° NNE
Cosmos 2228 3.1 19:38:30 10° S 19:42:29 51° E 19:46:28 10° NNE
NOSS 3-4 (A) 4.4 19:36:45 10° NW 19:42:55 46° NE 19:50:08 10° ESE
SPOT 5 4.3 19:39:09 10° SSW 19:43:03 33° W 19:47:03 10° NNW
SL-24 R/B 4.3 19:38:53 10° NNE 19:43:10 82° WNW 19:47:53 10° SSW
SL-16 R/B 2.9 19:37:54 10° NNW 19:43:22 44° NE 19:48:46 10° SE
NOSS 3-4 (C) 4.5 19:37:22 10° NW 19:43:33 46° NE 19:50:48 10° ESE
USA 186 2.5 19:41:14 10° SE 19:43:39 29° ENE 19:46:06 10° N
Okean 1 Rocket 4.3 19:44:28 10° SSW 19:48:42 47° WNW 19:53:01 10° N
Cosmos 2084 Rocket 4.0 19:47:03 10° NW 19:51:09 53° SW 19:55:16 10° SSE
Cosmos 2233 Rocket 4.0 19:45:07 10° S 19:51:12 63° E 19:57:17 10° NNE
ATLAS 2AS CENTAUR R/B 4.4 19:45:57 10° W 19:52:18 37° NNW 19:58:34 10° NE
SKYMED 3 4.3 19:53:18 10° NNE 19:57:16 80° ESE 20:01:15 10° SSW
CZ-2C R/B 4.4 19:56:26 10° E 19:57:23 11° ENE 19:58:21 10° NE
COSMOS 2406 3.6 19:53:01 10° S 19:58:23 43° ESE 20:03:46 10° NE
Cosmos 1980 Rocket 3.4 19:53:34 10° NW 19:58:52 40° WSW 20:04:07 10° S
Okean-O 2.7 19:55:28 10° SSE 19:59:48 69° ENE 20:04:10 10° N
Cosmos 1782 2.6 19:56:22 10° SSW 19:59:53 79° W 20:03:26 10° N
CZ-4 R/B 3.1 19:57:09 10° SSW 20:00:19 28° W 20:03:30 10° NW
Ariane Rocket 3.9 19:58:02 10° SE 20:02:30 34° ENE 20:07:04 10° N
Cosmos 1933 4.3 20:02:11 11° SSE 20:05:13 27° E 20:08:29 10° NNE
SPOT 3 Rocket 4.0 20:01:10 11° SE 20:05:54 46° ENE 20:10:48 10° N
Cosmos 1758 Rocket 3.8 20:02:13 10° N 20:06:34 54° ENE 20:10:37 12° SSE
Spot 2 Rocket 3.5 20:02:45 10° SSE 20:07:46 89° ENE 20:12:50 10° NNW
Cosmos 1725 Rocket 4.4 20:03:42 10° SSW 20:09:56 70° WNW 20:16:11 10° N
Cosmos 2333 Rocket 2.5 20:05:37 10° NNW 20:11:17 61° ENE 20:16:16 13° SE
ERS-1 Rocket 4.1 20:09:14 10° SSW 20:13:57 41° W 20:18:43 10° NNW
Tsikada Rocket 4.2 20:12:11 10° NNW 20:18:21 76° W 20:24:28 10° S
USA 245 4.3 20:19:40 12° SSE 20:25:04 71° ENE 20:30:35 10° N
Cosmos 2360 Rocket 2.8 20:19:39 10° NNW 20:25:09 48° NE 20:29:39 15° SE
Cosmos 1461 2.7 20:22:43 10° SSW 20:26:19 51° ESE 20:29:53 10° NE
CZ-4B R/B 4.3 20:21:41 10° S 20:27:02 43° W 20:32:23 10° NNW
CZ-4B R/B 3.6 20:25:36 16° SE 20:29:20 57° ENE 20:34:06 10° N
CZ-4C R/B 3.7 20:26:10 10° W 20:30:23 36° NNW 20:35:46 10° NE
Cosmos 1602 Rocket 3.8 20:26:31 10° N 20:30:46 55° ENE 20:33:50 18° SSE
Cosmos 1992 Rocket 4.1 20:25:45 10° SSW 20:30:57 84° WNW 20:36:12 10° NNE
YAOGAN 11 4.2 20:29:31 10° NNE 20:33:59 85° WNW 20:38:27 10° SSW
ISS -3.2 20:34:00 10° W 20:37:18 59° N 20:40:38 10° ENE
Cosmos 1777 Rocket 4.3 20:32:20 10° NNW 20:37:31 56° ENE 20:41:09 19° SE
Cosmos 2219 Rocket 3.1 20:33:11 10° NNW 20:38:31 40° NE 20:42:48 15° ESE
Meteor 1-25 Rocket 4.2 20:33:45 10° N 20:39:26 74° ENE 20:43:46 17° SSE
Cosmos 220 Rocket 4.0 20:36:01 12° S 20:39:33 49° ESE 20:43:31 10° NNE
Cosmos 1437 Rocket 2.4 20:36:40 13° S 20:39:45 74° E 20:43:21 10° NNE
USA 290 3.6 20:39:46 20° ESE 20:39:52 20° ESE 20:42:16 10° NE
SL-08 R/B 4.3 20:39:32 10° N 20:44:12 49° WNW 20:48:45 10° SW
Cosmos 1503 Rocket 4.4 20:40:56 10° NNW 20:46:01 51° ENE 20:49:23 20° SE
DEBRIS 3.6 20:43:48 10° W 20:47:02 88° S 20:57:31 10° E
Cosmos 1626 Rocket 4.1 20:42:50 10° NNW 20:47:07 55° W 20:51:00 12° S
Cosmos 2098 Rocket 3.4 20:44:23 18° SSE 20:47:40 50° E 20:51:43 10° NNE
Cosmos 1076 Rocket 4.5 20:45:31 10° N 20:49:24 33° ENE 20:51:27 21° ESE
NOSS 3-3 (A) 4.2 20:44:22 10° SW 20:49:36 66° NW 20:56:00 10° NE
Terra 4.0 20:48:16 10° SW 20:51:48 21° W 20:55:22 10° NW
Cosmos 2151 3.3 20:51:05 10° NNW 20:55:08 59° W 20:58:09 17° S
Cosmos 2322 Rocket 2.2 20:51:21 10° NNW 20:57:03 81° ENE 21:00:46 23° SSE
Cosmos 1486 Rocket 4.0 20:51:53 10° NNW 20:57:11 87° ENE 21:00:35 23° SSE
Cosmos 1513 Rocket 4.4 20:51:11 10° S 20:57:23 84° E 21:03:32 10° N
IRS-1C Rocket 4.1 20:53:40 19° SSE 20:57:31 87° WSW 21:02:50 10° NNW
Cosmos 1464 Rocket 4.1 20:53:50 17° SSE 20:58:33 61° E 21:04:38 10° NNE
Cosmos 2082 Rocket 3.7 20:56:13 10° WSW 21:01:34 40° NW 21:06:57 10° NNE
USA 306 3.6 21:01:24 10° WNW 21:03:37 23° NNW 21:04:50 13° NE
Cosmos 1606 Rocket 3.6 21:03:17 25° SSE 21:05:34 57° E 21:09:49 10° NNE
Meteor 2-10 4.2 20:59:49 10° N 21:05:35 78° ENE 21:09:14 23° SSE
CZ-4B R/B 3.5 21:09:42 20° SSW 21:11:36 40° W 21:14:53 10° NNW
Cosmos 1766 4.2 21:09:45 10° NNE 21:12:27 24° ENE 21:13:02 23° E
USA 186 4.2 21:11:43 10° WSW 21:13:06 13° W 21:14:31 10° WNW
Cosmos 1726 Rocket 3.6 21:12:34 32° SSE 21:14:04 49° E 21:17:58 10° NNE
Cosmos 2237 Rocket 4.4 21:10:46 10° N 21:14:31 18° NE 21:18:16 10° ENE
Cosmos 1428 Rocket 4.5 21:09:02 10° N 21:15:18 78° E 21:19:09 24° SSE
Okean O Rocket 3.6 21:12:03 10° SW 21:15:24 22° W 21:18:48 10° NW
Cosmos 540 Rocket 3.9 21:13:17 26° SSE 21:15:37 43° ESE 21:20:29 10° NE
Cosmos 1072 Rocket 4.5 21:11:32 16° S 21:16:45 87° E 21:23:09 10° N
Cosmos 1092 Rocket 4.5 21:11:07 10° N 21:17:04 47° ENE 21:20:29 24° SE
Aureole 1 Rocket 4.5 21:13:04 10° NNW 21:18:33 49° ENE 21:22:39 22° SE
Cosmos 1805 3.4 21:17:56 10° NNW 21:21:08 50° W 21:22:21 31° SSW
Cosmos 2278 4.3 21:17:27 10° NW 21:22:58 50° WSW 21:26:23 22° S
Meteor 1-5 Rocket 4.5 21:19:52 10° NNW 21:25:36 71° W 21:29:21 23° S
COSMOS 2428 3.9 21:21:08 10° NNW 21:26:19 34° NE 21:30:13 16° ESE
SL-16 R/B 3.2 21:22:11 10° NW 21:27:22 37° WSW 21:30:55 18° SSW
CZ-2C R/B 2.9 21:27:14 33° SW 21:27:48 38° W 21:30:27 10° NNW
Okean 1-7 Rocket 3.8 21:23:50 10° NNW 21:28:16 65° W 21:30:35 27° S
Geosat 4.3 21:28:27 10° NE 21:33:16 46° ESE 21:35:08 32° SSE
NOSS 3-4 (A) 4.1 21:27:28 10° NW 21:34:07 61° SW 21:38:39 26° SSE
NOSS 3-4 (C) 4.0 21:28:06 10° NW 21:34:46 62° SW 21:39:17 26° SSE
Cosmos-2242 3.3 21:34:03 38° SE 21:35:03 46° E 21:39:00 10° NNE
Cosmos 2034 Rocket 4.0 21:32:54 24° S 21:36:56 78° E 21:43:18 10° NNE
Ariane Rocket 4.0 21:38:06 18° SSW 21:41:19 38° W 21:46:03 10° NNW
USA 234 4.3 21:42:14 10° ENE 21:47:10 23° SE 21:47:10 23° SE
TSX-5 4.1 21:46:32 10° NNW 21:49:32 41° NE 21:50:06 37° E
Nadezhda 4 Rocket 4.5 21:46:27 10° NNW 21:52:22 53° W 21:56:13 22° SSW
Cosmos 2333 Rocket 3.7 21:50:31 10° NW 21:55:10 26° WSW 21:58:17 17° SSW
Helios 1B rocket 2.1 21:55:11 53° ESE 21:55:39 59° ENE 21:59:07 10° N
Cosmos 2279 Rocket 4.5 21:53:17 30° SE 21:55:50 45° E 22:01:44 10° NNE
Cosmos 1763 Rocket 3.5 21:53:12 22° SSW 21:56:42 82° WNW 22:02:01 10° NNE
Okean 1 4.0 21:56:18 28° SW 21:57:44 43° WNW 22:01:12 10° N
Cosmos 1470 3.4 21:55:04 10° N 21:58:06 32° ENE 21:58:12 32° ENE
Cosmos 1536 2.5 21:54:58 10° N 21:58:40 73° E 21:59:12 60° SE
Cosmos 2221 3.7 21:59:07 26° E 21:59:30 27° E 22:03:01 10° NNE
Cosmos 1707 2.2 21:59:51 66° N 21:59:51 66° N 22:02:21 10° N
Cosmos 1898 Rocket 4.0 21:54:44 10° NNW 21:59:48 51° ENE 22:02:03 30° ESE
Cosmos 1634 Rocket 4.0 21:57:45 33° SSE 22:00:37 67° E 22:06:47 10° NNE
CSL-04 DEB 4.2 22:01:35 53° ESE 22:02:05 61° ENE 22:05:41 10° N
Cosmos 1833 4.2 21:57:58 18° SSW 22:02:15 83° WNW 22:07:55 10° NNE
Cosmos 2297 Rocket 3.8 22:01:44 18° ESE 22:02:16 18° E 22:05:55 10° ENE
Cosmos 1953 Rocket 3.9 21:59:16 10° NNW 22:03:32 57° W 22:04:56 38° SSW
CZ-2C R/B 4.3 21:59:22 10° NNE 22:03:33 38° E 22:04:14 36° ESE
Cosmos 44 3.4 21:59:31 10° NW 22:04:58 82° SW 22:06:56 40° SSE
Cosmos 990 Rocket 4.3 21:59:55 10° NNW 22:04:58 55° WSW 22:06:54 35° SSW
Cosmos 2360 Rocket 3.3 22:03:56 10° NW 22:08:58 34° WSW 22:11:23 24° SSW
Meteor 2-6 Rocket 4.5 22:08:15 36° SSE 22:10:37 62° E 22:16:29 10° NNE
Cosmos 2322 3.8 22:05:33 10° NNW 22:11:16 70° ENE 22:13:46 34° SE
USA 290 4.2 22:12:10 17° WSW 22:13:51 26° WNW 22:16:35 10° N
ISS -3.8 22:10:55 10° WNW 22:14:17 84° NNE 22:14:19 83° NE
Cosmos 2026 Rocket 4.3 22:08:45 10° NNW 22:15:03 63° W 22:18:17 30° SSW
BREEZE-M DEB (TANK) 4.1 22:13:09 10° W 22:13:11 10° W 22:13:11 10° W
Cosmos 2058 Rocket 3.0 22:14:25 45° SSW 22:15:41 79° W 22:20:03 10° N
GP-B 4.5 22:14:25 10° NNE 22:18:04 25° E 22:18:52 24° E
Helios 1A 3.2 22:17:30 10° N 22:21:22 60° WNW 22:22:30 41° SW
Cosmos 2219 Rocket 2.9 22:17:11 10° NW 22:22:29 42° WSW 22:24:29 31° SSW
Cosmos 2266 Rocket 4.5 22:18:24 10° N 22:24:13 47° ENE 22:26:50 30° SE
Cosmos 1975 2.8 22:21:34 10° N 22:25:12 55° ENE 22:25:24 54° E
KORONAS-FOTON 3.5 22:25:06 70° W 22:25:12 71° W 22:28:36 10° N
Cosmos 841 Rocket 3.7 22:28:15 43° SSE 22:29:23 52° ESE 22:34:29 10° NNE
RESURS DK-1 2.1 22:28:07 10° NNW 22:32:07 85° ENE 22:32:35 68° SE
ARIANE 5 R/B 2.6 22:32:16 54° SSE 22:33:15 82° ENE 22:37:45 10° NNW
Meteor 1-19 Rocket 4.5 22:32:11 39° SSE 22:34:04 58° E 22:39:54 10° NNE
ALOS 2 2.6 22:33:58 52° SE 22:34:55 71° ENE 22:39:19 10° N
Cosmos 2322 Rocket 4.0 22:36:35 10° WNW 22:40:23 19° W 22:42:34 15° SW
Cosmos 1271 Rocket 2.5 22:46:13 65° WNW 22:46:13 65° WNW 22:49:32 10° N
Cosmos 372 Rocket 4.3 22:41:43 10° NNW 22:46:41 53° WSW 22:47:53 43° SSW
SL-16 R/B 4.3 22:42:42 10° N 22:47:08 23° NE 22:51:34 10° E
Cosmos 1842 3.5 22:47:39 46° WNW 22:47:39 46° WNW 22:50:33 10° N
Lacrosse 4 Rocket 3.2 22:51:57 18° E 22:51:57 18° E 22:53:59 10° ENE
Spot 4 3.9 22:51:57 50° SSW 22:53:03 68° WSW 22:57:50 10° NNW
Meteor 2-9 Rocket 4.2 22:48:52 10° NNW 22:54:15 71° W 22:55:56 44° SSW
PSLV R/B 3.5 22:51:06 10° NNE 22:55:24 70° ESE 22:55:59 60° SSE
Cosmos 2237 Rocket 2.4 22:54:04 10° NNW 22:59:44 65° ENE 23:02:17 33° SE
CZ-2C R/B 3.1 22:58:57 32° SE 23:01:02 51° ENE 23:06:04 10° N
BREEZE-M DEB (TANK) 4.1 22:46:34 10° WSW 23:01:43 88° SSE 23:05:29 10° ENE
Cosmos 1980 3.8 22:58:14 10° NNW 23:03:55 74° ENE 23:06:13 37° SE
ARGOS Delta rocket 4.0 22:59:39 10° N 23:04:49 82° WNW 23:06:31 45° SSW
Cosmos 858 Rocket 4.4 23:00:03 10° NNW 23:05:16 88° ENE 23:06:42 49° SSE
Cosmos 2142 Rocket 4.5 23:05:16 38° SSW 23:07:51 79° W 23:14:07 10° N
Cosmos 1937 Rocket 3.5 23:03:14 10° NNW 23:08:20 63° WSW 23:09:27 50° SSW
Cosmos 2180 Rocket 4.5 23:06:36 39° SSW 23:09:10 80° W 23:15:32 10° N
COSMOS 2428 3.0 23:05:16 10° NW 23:10:47 52° WSW 23:12:11 42° SSW
Cosmos 2227 Rocket 3.4 23:11:04 25° ESE 23:12:07 26° ESE 23:16:45 10° NE
Meteor 2-4 Rocket 4.2 23:11:49 37° SE 23:13:18 46° E 23:18:34 10° NNE
NOSS 0 Rocket 4.0 23:07:22 10° NW 23:13:28 65° WSW 23:15:26 43° S
Meteor 1-11 Rocket 3.7 23:08:24 10° NNW 23:14:04 75° W 23:15:45 46° S
MetOp-A 3.7 23:18:10 54° S 23:19:19 86° WSW 23:24:02 10° NNW
Meteor 1-10 Rocket 4.3 23:17:23 41° SSW 23:19:33 81° WNW 23:25:32 10° N
Cosmos 2263 Rocket 3.8 23:20:54 19° ESE 23:22:05 20° E 23:26:02 10° NE
Cosmos 1812 Rocket 3.9 23:25:18 46° WSW 23:26:11 55° WNW 23:30:33 10° N
Cosmos 1238 Rocket 2.9 23:25:54 60° ESE 23:26:12 63° E 23:30:29 10° NNE
USA 234 3.2 23:24:29 10° ENE 23:31:03 71° SE 23:34:29 30° SW
SeaSat 1 3.0 23:28:37 25° ESE 23:31:15 53° NE 23:36:02 10° NNW
CZ-2C R/B 3.3 23:27:57 10° NNE 23:33:45 88° ESE 23:35:48 43° SSW
Meteor 1-27 Rocket 3.7 23:32:34 44° S 23:34:33 89° ESE 23:40:19 10° NNE
ACS3 Solar Sail 2.7 23:29:30 10° NNE 23:34:59 36° E 23:37:20 27° SE
Cosmos 2221 3.7 23:35:23 28° W 23:36:24 32° WNW 23:40:11 10° N
ATLAS 2AS CENTAUR R/B 4.2 23:31:50 10° NW 23:37:59 35° NNE 23:44:08 10° E
Meteor 2-20 Rocket 4.2 23:37:28 44° S 23:39:23 84° E 23:45:07 10° NNE
BlueWalker 3 3.4 23:41:18 24° E 23:41:18 24° E 23:42:57 10° ENE
Cosmos 2297 Rocket 2.1 23:43:29 41° SW 23:45:33 84° WNW 23:51:15 10° NNE
Okean 3 Rocket 4.3 23:43:31 10° N 23:47:56 49° ENE 23:49:21 35° SE
Landsat 5 3.3 23:47:12 10° NNE 23:51:17 69° ESE 23:51:40 63° SE
Cosmos 1842 Rocket 3.6 23:53:33 56° SSE 23:54:19 70° E 23:58:43 10° NNE
GP-B 3.9 23:51:09 10° NNW 23:55:11 37° W 23:56:01 34° WSW
